Location: Bagnolo San Vito
(45.0833°N, 10.8833°E)
Time: 00:09:18
(UTC+00:00)

Cosmos 2184 Rocket - Pass Details

Date: 03 March 2021
Orbit: 960 x 1001 km, 82.9° (Epoch: 17 April)

Event Time Altitude Azimuth Distance (km) Brightness Sun altitude
Rises 17:53:27 0° 190° (S) 3,628 7.1 -9.1°
Reaches altitude 10° 17:55:56 10° 191° (S) 2,687 6.5 -9.5°
Maximum altitude 18:02:05 80° 279° (W) 985 4.2 -10.6°
Drops below altitude 10° 18:08:19 10° 6° (N) 2,723 6.3 -11.7°
Sets 18:10:51 0° 8° (N) 3,680 7.0 -12.1°
